GFSSGP_700_spd_336.txt.gz
Wind_Speed
9 7 5 7 6 7 7 4 4 4 4 3 3 6 5 3 2 2 7 10 10 11 11 11 10 10 11 12 11 9 7 8 9 9 8 9 8 9 12 13 15 15 14 13 11 8 6 7 6
11 6 9 10 10 8 5 6 1 6 6 5 2 5 5 6 5 1 13 12 13 12 12 11 10 10 11 12 10 8 7 8 8 7 6 6 8 10 12 14 15 16 16 14 12 8 8 7 6
10 6 10 10 6 5 3 4 1 4 5 9 2 1 3 1 5 9 13 11 12 12 11 9 9 9 11 11 10 8 7 7 6 5 6 7 8 10 11 13 15 16 17 15 10 7 6 6 6
9 6 4 6 5 6 1 3 3 6 2 8 5 3 6 11 15 14 10 10 10 12 10 9 9 10 11 11 9 7 6 6 4 4 5 7 9 11 13 15 16 18 19 14 10 6 4 4 4
9 7 3 4 6 4 4 2 1 2 1 9 8 3 5 13 14 12 9 9 9 10 9 8 8 9 10 10 8 6 5 4 3 4 6 8 9 11 13 15 17 20 19 13 10 7 5 2 2
10 7 3 3 6 3 5 4 2 1 5 9 10 8 4 13 13 10 9 9 10 11 8 7 7 8 9 8 6 5 3 2 3 5 7 10 12 13 14 16 18 21 17 13 9 7 5 4 2
8 8 4 3 6 10 11 8 3 1 6 8 9 9 1 11 13 13 10 10 12 11 10 8 7 7 7 7 6 4 2 1 3 6 9 11 12 13 15 16 19 21 16 14 10 6 5 4 3
12 7 5 4 7 15 16 12 5 1 6 8 10 8 2 8 12 12 13 12 13 12 11 10 9 8 8 7 6 3 1 2 5 8 10 12 13 13 14 15 18 19 16 17 9 7 6 7 4
13 5 4 3 9 11 17 15 10 4 4 6 7 7 6 11 15 13 13 12 12 12 11 10 10 9 8 7 4 3 2 4 7 9 11 12 12 13 14 14 16 18 17 17 12 8 5 5 6
14 7 6 8 7 11 15 18 7 4 6 4 7 7 9 12 14 13 12 12 12 12 11 10 9 8 7 5 3 2 4 7 9 10 11 10 12 13 14 14 16 16 15 14 13 11 7 4 5
16 8 4 6 8 14 17 18 7 5 5 7 9 6 11 12 15 16 16 15 13 12 11 9 8 7 4 1 1 4 6 7 9 10 11 10 12 12 11 12 16 14 13 14 10 8 6 4 3
15 9 4 7 5 17 20 12 9 3 2 5 10 9 7 12 14 17 17 16 13 11 9 7 7 6 4 1 2 5 7 8 10 11 13 15 15 14 12 12 14 15 14 13 12 7 6 6 5
17 13 9 8 8 15 20 15 9 3 3 1 8 10 10 13 16 17 17 15 12 9 7 7 6 4 3 2 2 3 5 7 9 10 12 12 11 12 12 11 13 15 13 13 13 8 5 7 7
16 14 11 9 5 17 24 19 17 8 6 1 6 6 8 12 14 15 14 13 12 11 7 4 3 2 2 2 1 3 6 9 10 12 11 11 13 16 11 13 13 12 12 11 12 11 9 8 8
19 14 9 5 8 15 24 23 21 12 8 4 4 6 6 13 15 16 14 12 10 9 8 7 5 5 3 2 0 4 7 9 12 14 15 13 13 13 13 14 14 14 9 9 12 12 10 8 8
16 14 3 11 13 16 26 24 21 16 13 6 3 5 6 10 14 14 14 13 10 8 6 4 3 3 3 2 3 5 7 10 13 15 17 17 16 14 13 11 10 11 13 13 13 16 13 8 7
14 8 3 11 15 20 27 24 23 19 16 12 7 6 6 8 9 12 13 14 10 8 6 4 1 3 4 3 4 6 7 10 12 15 17 18 15 10 9 8 7 8 9 10 12 12 14 13 11
10 10 6 7 18 24 24 22 10 14 18 18 12 8 7 6 12 13 11 12 10 6 5 3 1 3 4 4 5 7 7 8 11 13 15 18 12 7 5 4 5 6 8 10 12 13 12 13 13
14 16 12 10 7 14 21 22 19 20 22 23 20 15 10 8 8 10 11 11 9 7 6 5 3 6 6 6 8 9 9 10 10 12 13 15 8 5 3 3 4 6 8 9 8 8 10 11 11
15 15 14 10 5 5 8 14 16 15 21 21 19 17 14 13 6 6 8 10 10 7 5 4 5 6 8 9 11 10 11 10 10 10 10 12 7 5 3 0 2 7 9 11 10 9 10 11 13
16 16 13 11 9 7 8 14 12 16 21 21 27 23 20 19 11 6 5 8 8 7 5 5 7 8 12 13 13 11 11 10 11 11 8 11 9 8 5 4 5 9 13 11 11 11 11 12 14
17 17 11 11 11 8 6 5 16 16 19 24 25 27 25 23 18 14 9 7 6 5 5 5 7 10 12 15 15 14 13 12 14 12 10 10 11 13 11 10 10 12 14 13 12 14 15 16 16
10 13 10 12 11 10 12 7 12 19 20 22 26 26 27 25 22 20 12 7 6 5 4 7 9 11 11 14 15 14 12 13 15 14 14 14 16 17 18 16 15 16 17 18 16 16 19 19 21
6 8 10 11 13 5 15 14 17 21 22 18 21 25 27 30 26 23 18 13 13 10 8 9 13 10 7 10 11 11 14 15 17 16 18 17 21 23 23 23 25 23 23 22 22 23 23 26 26
7 5 3 2 1 6 12 12 18 20 19 20 21 25 24 26 28 28 27 22 19 17 11 9 15 9 7 8 8 12 16 19 20 21 20 21 23 26 27 28 32 31 30 27 27 25 27 29 30
6 3 3 5 4 4 7 6 4 14 18 20 18 19 26 28 25 28 30 26 25 21 14 12 13 12 9 8 10 17 20 21 22 21 23 25 26 28 26 28 32 30 29 27 30 32 34 34 30
7 7 8 8 7 3 6 14 18 18 15 10 8 15 19 25 24 29 28 29 27 24 18 18 14 14 15 12 18 23 20 20 22 24 25 26 24 23 25 19 21 27 28 28 33 36 38 37 36
13 12 7 6 2 4 6 10 13 16 13 11 6 10 14 20 24 28 28 32 29 26 19 21 17 17 18 16 18 21 22 23 23 23 27 26 23 27 29 20 24 27 26 30 34 38 40 41 44
5 10 8 8 7 5 3 9 17 17 19 12 11 7 8 16 19 23 27 31 32 30 11 17 18 20 18 21 23 22 23 24 21 22 27 28 21 19 21 21 23 23 27 32 38 41 44 47 46
20 14 11 7 6 10 11 19 21 20 20 14 11 12 9 14 19 20 27 27 17 22 11 22 19 18 19 22 24 24 23 19 18 20 21 19 19 19 22 24 22 27 33 38 40 42 43 44 45

GFSSGP_700_spd_339.txt.gz
Wind_Speed
7 4 1 8 6 6 5 2 5 5 3 3 3 4 2 1 1 1 4 10 12 11 10 11 11 11 12 12 10 8 8 8 8 7 7 8 11 13 14 15 15 15 14 12 10 8 7 5 4
9 6 8 7 8 7 3 3 5 4 5 3 3 6 6 4 4 1 10 10 13 13 11 11 11 12 13 12 9 8 7 7 7 7 8 10 12 13 15 16 17 18 18 14 9 6 5 4 3
10 8 8 7 4 5 4 2 4 7 6 5 3 5 3 3 6 9 11 11 12 14 13 11 11 12 13 11 8 7 7 6 6 6 8 10 12 14 16 18 19 21 21 12 7 4 4 3 2
10 7 5 6 3 2 3 3 5 7 5 5 1 2 3 15 15 15 11 13 13 14 13 11 11 12 12 10 7 6 6 5 4 5 7 9 11 13 15 17 19 21 19 10 6 4 3 2 1
9 7 5 4 2 2 1 1 4 7 4 4 4 4 7 18 17 13 12 14 14 13 12 11 12 12 12 10 7 6 5 4 4 7 9 11 12 14 16 18 20 22 17 11 8 6 5 4 3
10 9 4 4 4 3 2 1 4 6 5 4 5 3 6 16 17 14 14 12 13 14 12 11 12 12 11 9 7 5 3 2 4 7 10 13 14 15 18 20 21 22 14 11 7 5 4 4 3
9 8 6 6 7 6 5 2 5 6 4 6 6 3 3 14 16 14 13 11 12 14 13 12 11 11 10 8 6 4 2 3 5 8 10 12 13 15 17 19 21 21 15 10 8 6 6 4 3
11 8 0 4 9 11 10 8 7 6 4 6 7 5 2 7 15 15 13 13 12 13 13 12 12 11 10 7 5 3 0 3 6 8 10 11 12 14 17 19 22 20 15 10 7 5 5 6 5
12 3 3 1 8 10 7 8 9 6 2 6 8 5 7 8 13 14 13 13 13 13 13 13 13 12 10 7 5 2 1 4 6 8 10 10 11 13 16 19 21 20 16 13 7 4 3 4 5
13 8 4 4 5 8 5 8 8 3 2 5 7 5 8 12 14 14 13 13 14 13 12 12 12 12 10 6 3 1 4 6 7 9 10 10 12 14 15 15 17 17 15 12 7 5 2 2 4
15 11 3 4 4 7 7 10 8 4 2 4 5 5 7 11 15 17 17 16 15 14 13 11 10 9 7 5 2 2 5 6 8 10 12 14 15 14 15 13 15 15 14 12 6 6 4 2 3
14 11 3 2 3 8 10 9 7 6 2 3 5 7 6 11 15 17 17 16 15 14 13 11 10 9 7 5 3 4 6 7 9 10 11 12 12 14 15 14 13 13 14 10 8 4 5 5 5
16 13 5 3 3 8 12 9 8 3 3 2 4 8 10 12 17 20 19 17 15 13 12 11 10 7 6 5 4 4 4 7 9 11 11 11 11 12 13 13 12 13 11 11 8 6 4 5 5
14 13 10 7 9 12 15 15 13 11 7 5 3 6 11 11 14 17 18 16 14 12 11 10 8 7 6 5 4 3 4 6 7 9 11 11 10 11 10 8 10 11 12 12 12 8 6 5 5
17 11 10 10 7 9 14 19 16 12 9 6 5 5 10 15 15 14 14 14 13 11 9 8 7 6 5 4 4 2 3 5 7 8 10 12 11 7 4 6 6 8 7 10 13 11 9 8 8
16 12 9 9 9 11 15 10 14 15 11 7 7 7 7 13 16 18 17 16 15 14 11 9 8 8 7 6 4 3 1 3 6 8 10 12 12 8 4 2 3 6 9 12 11 12 11 8 5
15 10 12 11 14 15 18 12 12 16 14 10 8 9 7 14 17 17 18 17 15 13 10 9 9 8 8 7 6 4 3 5 6 7 9 11 10 7 4 3 4 5 7 9 9 10 9 7 6
12 15 11 11 18 18 20 15 12 14 19 15 12 11 9 7 13 14 15 18 18 15 13 11 8 7 7 7 7 6 5 7 7 7 7 9 7 5 3 1 3 4 5 6 8 8 8 8 8
17 16 15 12 12 18 19 21 20 14 14 17 20 18 14 9 11 18 20 19 19 20 17 12 8 6 6 6 7 8 8 8 7 7 6 7 5 4 3 2 2 0 4 6 8 8 8 9 8
13 15 15 15 10 11 12 15 13 22 22 18 16 21 19 16 11 10 11 15 18 18 17 15 11 8 5 6 8 9 9 9 9 7 7 7 6 6 5 5 5 4 5 7 8 9 10 11 11
14 16 12 8 15 10 12 17 18 14 13 16 18 18 25 22 19 13 10 10 13 14 14 10 8 9 12 8 11 13 13 11 10 9 9 8 7 9 7 10 10 11 9 9 9 10 11 12 14
12 16 15 10 9 10 14 10 17 18 19 17 17 19 20 25 26 21 16 14 11 10 13 13 12 11 11 9 11 14 14 13 13 11 12 10 10 11 10 11 15 18 16 15 14 15 16 15 16
7 8 13 12 10 11 15 9 14 19 22 24 19 21 21 23 28 27 24 16 14 14 11 12 11 11 11 9 12 15 12 13 14 14 13 13 12 13 14 12 18 29 22 22 25 26 22 20 21
6 5 8 10 11 12 16 15 16 18 21 25 19 16 18 23 26 30 27 24 21 18 18 12 11 12 11 12 12 10 11 14 15 15 15 15 16 16 18 18 22 20 27 27 26 30 29 25 23
7 10 8 8 8 11 16 12 19 17 19 25 21 13 20 23 22 29 29 31 28 25 22 18 14 12 13 15 16 13 11 15 16 17 17 18 19 20 22 23 21 25 27 33 30 35 33 30 27
8 10 12 9 10 12 9 7 10 13 19 20 22 21 20 21 21 23 30 32 31 27 26 21 17 17 17 17 16 15 14 14 17 18 20 19 19 21 22 26 26 28 31 29 31 35 35 31 31
6 11 11 7 6 5 9 11 11 11 10 11 13 16 19 21 22 22 28 33 34 34 31 28 26 20 20 21 18 14 12 14 18 16 18 19 20 21 22 26 23 27 28 24 32 33 30 30 32
9 9 6 8 7 10 8 8 10 12 16 13 10 11 14 18 23 26 29 36 42 40 37 34 40 30 23 20 17 13 12 16 16 18 19 18 21 22 22 24 26 24 25 27 30 30 32 37 41
1 5 10 9 8 8 9 9 10 12 16 15 15 14 14 13 19 21 23 31 36 37 41 44 45 29 27 13 15 18 20 19 17 17 16 18 19 16 17 20 23 25 26 29 32 34 37 40 39
13 14 10 7 5 8 9 18 21 19 17 19 18 16 14 18 19 20 21 26 31 32 36 42 38 22 16 7 18 21 22 17 17 16 18 18 21 20 21 22 24 24 25 29 33 35 37 35 32

GFSSGP_700_spd_342.txt.gz
Wind_Speed
5 4 6 10 4 5 9 9 8 8 5 2 1 3 1 3 2 1 7 12 13 13 12 12 12 13 14 13 11 10 9 9 8 8 10 11 11 12 14 16 18 19 17 11 7 4 1 0 1
6 7 9 7 3 12 10 7 9 6 5 5 2 1 2 3 2 2 11 11 14 14 13 12 12 14 14 12 10 9 8 7 8 9 10 11 12 15 17 18 18 20 18 12 7 4 1 1 1
9 10 7 3 2 10 12 6 5 6 9 4 3 2 2 2 4 11 12 11 12 15 14 13 13 14 14 11 9 8 7 6 7 9 11 12 13 14 16 17 19 20 17 11 6 3 3 2 0
9 6 3 5 10 7 7 4 3 5 8 7 2 2 2 9 11 14 14 13 13 13 13 13 14 14 13 11 9 7 6 5 6 8 9 10 12 14 16 18 19 20 15 9 5 3 2 1 1
9 7 4 6 8 6 3 1 2 5 7 7 4 1 3 14 16 14 14 15 14 13 13 13 13 14 13 10 8 6 5 3 5 7 8 10 12 14 16 19 21 20 14 10 6 4 4 3 2
6 7 6 9 8 4 2 2 1 3 4 8 2 6 5 15 15 15 16 15 15 14 13 13 13 14 13 10 8 6 3 2 4 6 8 10 12 14 16 20 22 19 14 10 7 5 5 4 3
7 6 3 5 5 2 2 4 1 2 3 3 3 7 7 16 15 15 15 15 14 14 13 13 13 13 12 10 6 4 1 2 5 8 10 11 11 13 15 18 19 16 12 7 6 8 8 5 4
8 5 4 5 4 3 4 4 5 1 7 9 4 3 6 13 15 15 14 13 13 13 13 13 13 13 11 9 5 2 1 4 7 9 10 11 11 13 17 18 18 16 10 8 5 3 5 6 6
12 7 5 4 4 3 4 6 6 6 7 8 7 5 7 11 14 14 12 12 13 14 14 14 14 13 11 9 5 2 2 4 6 8 10 10 12 14 17 19 18 14 9 6 6 4 3 4 3
11 8 5 2 3 4 5 8 4 2 4 7 7 1 7 12 14 13 12 13 13 14 14 14 13 13 10 8 5 2 1 4 5 8 10 11 12 12 12 14 15 12 9 6 5 6 4 3 4
11 7 5 1 3 7 7 9 6 4 2 2 4 3 7 13 16 17 16 14 14 15 14 14 12 10 9 7 4 2 1 2 4 6 8 10 11 11 12 13 14 12 8 8 6 4 3 3 2
11 10 5 2 2 7 9 10 5 6 2 3 3 4 5 10 13 16 16 16 15 15 15 14 13 11 10 7 5 3 2 3 4 6 7 7 9 11 11 8 7 8 7 5 5 2 3 4 5
13 12 6 4 2 7 10 9 7 7 5 3 3 5 7 12 16 18 18 17 16 14 13 13 12 10 9 8 6 3 2 2 3 6 9 8 7 9 10 8 8 8 7 6 6 3 3 4 5
15 13 9 7 4 8 12 10 10 9 7 5 2 3 8 11 14 16 17 17 15 14 13 12 10 9 8 9 8 5 2 0 3 6 8 9 8 5 8 7 6 6 7 7 6 5 3 5 3
9 12 12 9 8 10 13 15 13 15 7 7 5 3 9 10 13 15 15 15 15 15 13 12 11 10 10 9 8 6 4 1 2 5 7 9 9 6 5 2 4 4 6 6 7 6 3 3 2
14 13 14 11 8 12 15 13 13 10 14 8 8 6 6 11 13 17 18 17 17 15 14 13 12 11 10 9 8 7 6 4 3 4 6 7 9 7 3 1 1 1 4 7 8 8 8 7 4
17 18 18 8 10 12 16 9 12 12 14 12 11 9 7 9 19 21 21 20 18 17 16 14 12 11 11 10 10 9 7 8 7 7 7 7 7 5 3 2 2 2 2 3 4 5 5 4 4
21 22 14 15 14 15 17 11 11 12 14 14 13 13 12 8 11 17 22 22 21 21 19 18 16 13 12 12 11 9 8 10 10 10 9 9 7 5 4 4 4 3 1 3 4 5 4 4 3
13 18 20 15 13 17 19 19 13 12 12 14 16 17 16 13 10 17 18 21 25 24 22 18 15 12 11 10 9 9 10 12 13 12 12 12 9 7 6 6 6 5 5 7 7 6 6 6 7
13 16 17 13 11 17 19 20 19 19 18 16 17 19 18 19 18 17 20 20 24 24 21 20 16 15 12 11 11 11 12 13 14 13 14 15 11 8 8 8 9 8 7 6 8 9 9 9 9
16 17 18 17 14 14 15 20 21 21 22 18 17 21 22 25 25 20 17 17 19 25 25 23 19 17 15 13 13 13 13 11 13 15 16 16 13 11 9 9 10 11 13 13 12 12 14 16 17
17 18 16 15 15 20 21 21 22 23 23 23 19 16 16 26 30 27 22 18 16 17 23 23 20 17 17 17 16 13 11 12 14 17 17 16 14 14 12 12 13 11 11 15 18 22 21 19 19
15 15 18 18 19 21 17 18 22 16 23 27 25 28 22 20 30 31 29 25 17 17 20 18 19 19 19 18 16 15 13 16 17 17 18 16 15 17 18 18 17 16 17 18 20 22 24 26 22
10 9 11 15 20 23 27 24 25 23 21 21 21 24 25 19 26 31 34 31 26 24 22 21 20 19 18 17 16 15 16 17 20 18 20 18 19 20 21 22 22 22 23 24 25 30 33 29 26
11 11 13 14 17 18 27 32 25 26 19 22 24 22 21 22 19 24 34 37 37 33 29 25 23 22 20 17 17 16 17 19 21 20 21 21 21 22 21 22 25 25 26 29 27 27 27 28 31
15 16 17 10 12 17 20 16 25 23 21 25 24 24 28 28 24 22 26 33 39 39 36 31 28 27 26 22 19 19 19 22 23 22 22 24 24 23 21 24 25 26 28 33 25 26 24 31 35
12 16 14 16 18 13 13 12 13 15 14 13 13 17 22 28 26 26 26 28 33 35 45 42 38 34 32 33 29 21 19 21 19 23 22 24 25 23 22 23 25 25 29 27 25 25 27 32 31
13 6 10 16 13 16 14 14 15 8 12 15 14 14 17 16 19 21 24 24 31 32 48 50 43 42 41 41 25 33 23 19 21 23 26 24 24 22 23 23 24 24 24 20 22 25 30 33 37
7 13 14 13 12 10 11 12 9 10 12 14 13 14 19 19 19 19 23 24 25 37 43 42 46 49 51 47 24 13 16 20 22 25 24 22 22 20 21 21 22 21 21 24 27 30 34 37 38
8 9 8 13 12 14 14 20 17 17 20 18 19 18 21 20 20 23 25 25 25 25 28 32 37 41 26 35 24 15 20 18 20 26 22 20 20 21 22 21 20 22 26 30 33 33 36 35 33

GFSSGP_700_spd_345.txt.gz
Wind_Speed
4 4 14 6 6 5 14 10 7 7 5 5 3 6 4 2 4 6 13 14 14 10 11 13 14 15 14 14 13 13 12 11 10 9 10 10 11 13 14 15 15 17 14 8 4 2 2 2 2
5 12 10 4 3 6 12 8 10 7 6 4 5 5 2 5 4 3 12 13 11 12 12 13 14 15 14 14 13 12 10 9 8 9 9 10 13 14 17 19 19 19 14 9 5 1 1 2 2
10 12 2 14 17 12 13 8 8 8 7 5 4 4 3 2 3 10 11 13 11 12 13 13 14 14 13 12 12 10 9 8 7 8 10 11 12 14 17 18 20 19 14 10 6 3 2 2 2
11 3 1 3 6 8 8 7 9 8 8 6 4 5 7 10 9 12 13 13 12 12 12 13 13 14 13 11 10 9 7 6 7 8 10 11 13 15 16 19 20 17 14 10 7 4 3 2 2
7 3 12 7 10 8 7 8 7 10 8 6 5 5 3 6 9 11 12 13 12 11 12 13 13 13 12 11 9 7 6 6 7 8 10 11 12 13 16 19 21 18 14 10 5 3 3 3 3
6 6 11 1 11 5 5 5 7 9 6 7 5 10 6 9 10 10 11 12 12 11 12 13 13 12 11 9 9 6 5 4 6 8 9 11 12 13 16 20 21 18 14 10 8 6 4 4 4
10 12 8 8 8 6 5 4 4 6 7 4 7 5 3 10 11 11 13 14 14 12 11 12 13 12 10 8 7 5 3 4 6 7 9 10 11 12 14 17 18 17 13 10 7 7 7 5 4
8 8 5 6 5 10 5 4 2 4 5 6 5 6 9 12 12 13 15 14 14 13 11 12 13 12 10 7 5 3 3 4 6 8 9 9 9 11 12 13 16 13 11 9 8 6 6 6 7
7 10 13 6 4 4 5 5 2 2 4 4 1 2 11 9 12 13 15 15 14 13 12 11 12 12 9 7 4 2 2 4 6 7 10 11 11 11 12 13 13 11 9 8 8 6 4 4 4
12 10 2 3 4 2 4 6 2 3 2 2 4 6 6 10 13 15 16 15 14 14 14 13 12 11 9 6 4 1 1 3 5 7 8 11 9 6 10 10 8 8 6 5 6 4 3 3 6
14 9 3 3 7 6 5 7 2 3 1 2 4 1 2 11 16 16 15 14 14 13 14 15 13 13 12 7 5 2 0 2 5 7 8 6 8 11 12 10 8 7 6 1 2 1 5 11 6
13 11 5 3 4 5 7 9 2 3 2 4 6 2 4 8 15 17 16 16 15 13 13 14 13 12 11 9 6 3 1 1 3 6 7 7 7 8 6 4 13 10 4 4 2 1 1 0 5
17 12 9 6 5 8 8 9 5 5 2 5 5 3 4 9 14 16 15 15 16 15 14 13 12 11 10 8 7 6 5 1 3 5 7 7 6 6 5 7 2 2 1 2 2 1 1 1 2
17 12 11 8 6 9 10 10 9 9 5 9 4 2 5 8 13 15 16 16 16 15 14 13 12 11 10 9 8 7 4 2 3 6 7 8 9 9 8 5 10 5 1 1 2 2 2 2 1
14 18 15 12 10 10 13 15 13 10 9 11 8 7 5 8 15 14 15 16 15 15 14 14 13 12 10 9 9 8 6 4 4 5 8 9 9 8 4 6 6 13 1 1 3 1 1 2 2
18 15 20 14 13 13 15 22 15 15 12 12 12 12 13 6 16 17 17 17 17 16 15 15 14 13 12 11 11 10 9 7 7 7 9 10 11 8 5 1 4 11 3 3 2 3 4 1 5
20 20 19 16 12 12 16 11 18 15 15 13 14 14 13 14 16 19 19 18 18 18 18 17 16 14 13 13 12 11 10 10 10 9 10 11 11 10 6 6 6 5 2 2 5 7 7 5 5
22 23 22 18 13 17 15 11 13 13 15 14 14 16 16 17 11 18 19 21 21 21 21 20 18 17 17 15 14 12 11 10 11 12 13 14 12 13 10 8 7 7 3 10 8 9 9 9 7
17 20 22 14 12 16 19 17 14 13 16 15 16 17 19 19 17 12 18 22 24 25 25 24 23 21 20 16 14 13 12 13 13 14 14 15 14 13 12 10 9 9 7 8 10 8 9 10 9
19 19 18 20 19 15 20 21 19 17 16 16 17 18 18 20 22 21 15 16 22 23 25 25 24 22 18 16 14 13 13 13 13 15 15 14 15 14 14 11 11 11 12 10 10 11 11 13 13
18 22 19 20 14 19 21 25 23 22 19 18 19 19 20 21 25 26 23 18 16 17 19 25 25 22 19 17 16 15 15 14 15 17 16 15 15 15 15 14 13 13 15 18 16 17 15 18 14
17 18 22 22 20 17 21 25 24 25 26 24 22 21 22 23 24 28 30 27 21 15 17 22 26 26 23 22 20 17 15 16 16 18 13 17 13 14 16 19 18 17 18 18 20 20 21 21 20
17 12 16 22 21 21 28 24 22 15 24 23 25 24 23 23 25 28 32 33 29 21 18 18 25 28 26 26 23 20 20 18 17 18 16 20 17 15 16 18 21 23 23 22 24 25 24 24 24
11 14 14 17 24 28 29 32 26 20 23 23 23 21 22 24 25 27 31 32 33 30 25 21 24 25 26 25 24 25 21 21 19 17 17 19 18 19 21 20 22 23 23 25 26 28 28 30 28
12 12 16 14 15 17 27 33 34 26 26 23 20 21 22 22 27 23 27 34 34 32 32 30 28 28 27 26 27 27 25 24 24 20 20 21 21 21 21 22 22 22 24 26 28 31 33 30 25
15 17 20 13 12 15 28 29 28 23 18 20 23 25 24 24 15 15 21 29 33 33 34 32 33 30 32 33 34 32 31 27 25 20 22 24 23 24 23 22 22 23 25 27 30 33 34 22 24
14 21 18 22 24 21 20 12 13 17 17 15 15 14 16 16 22 21 18 23 28 33 36 34 35 38 40 43 43 40 32 26 23 23 22 23 25 26 24 24 25 24 25 27 24 29 22 23 27
17 7 14 17 14 15 19 17 17 11 8 8 12 12 9 12 19 15 17 16 21 24 33 37 40 55 53 45 45 45 42 20 23 31 29 25 26 26 26 26 25 24 24 24 25 27 26 33 35
11 16 17 17 16 13 9 10 6 4 7 10 13 14 16 12 20 19 8 12 12 21 37 47 54 60 48 48 51 49 47 30 39 26 36 31 26 25 24 25 23 23 23 24 24 27 33 35 39
5 10 7 13 12 18 19 22 21 15 11 14 19 18 15 21 14 9 15 14 18 19 27 40 47 46 42 45 46 40 41 42 35 23 28 26 23 22 23 22 21 22 24 26 29 31 33 35 36